DELTA 1 R/B, 2758

Orbit data source: Space-Track

DELTA 1 R/B, 2758 is space debris in SSO originally from a launch on Thu, 20 Apr 1967 UTC launched from the Air Force Western Test Range (AFWTR). Debris objects in space refer to the collection of defunct objects orbiting the Earth. Examples of debris include non-operational satellites, rocket bodies, and fragments generated from explosions, collisions, or faulty payload assembly.

Loading next visibility...
Identifier
2758, 1967-036B
Orbit
SSO
Country
Flag of USUS
Related business
Manufacturer
ABL
Mission
Spacecraft
Bus & Motor
ALTAIR, Unknown motor
Mass
33 kg wet, 33 kg dry
Launch date (UTC)
1967-04-20 (59 years ago)
Launch vehicle
Unknown
Launch site
Air Force Western Test Range (AFWTR)
Object type
Payload
Rocket body
Debris
Shape & HBR
Unknown
Radar Cross Section
Medium (>0.1 m² and <1 m²)

Expand to show TLE details & history
Last TLE update: 5 hours ago

TLE from 5 hours ago
0 DELTA 1 R/B
1 02758U 67036B   26120.61319791 -.00000018  00000-0  15097-3 0  9997
2 02758 101.8509  27.0134 0041373  63.0875 297.4425 12.68933928733256
Epoch: 2026-04-30T14:43Z
TLE epoch observation values (Epoch: 2026-04-30T14:43:00.299Z)
Latitude
0.00004°
Longitude
-52.29515°
Altitude
1,374.178 km
Speed
7.179 km/s
True Right ascension
01h 48m 03s
True Declination
0° 00' 00"
Sunlit
Object was in daylight at epoch
Visualization orbit readout
Latitude
Unknown
Longitude
Unknown
Altitude
Unknown
Speed
Unknown
Apparent Right ascension
Unknown
Apparent Declination
Unknown
Sunlit
N/A
Visualization observer readout
Local Sidereal Time
03:45:42
Azimuth
Unknown
Elevation
Unknown
Doppler factor
Unknown
Orbital elements
Apogee altitude
1,415.927 km
Perigee altitude
1,351.7 km
Semi-major axis
7,761.951 km
Eccentricity
0.00414
Inclination
101.8509°
RAAN
27.0134°
Arg. of periapsis
63.0875°
True anomaly
297.02075°
Mean anomaly
297.4425°
Eccentric anomaly
297.23172°
Mean motion
3.17385 °/min
Orbital period
113.43 mins
BSTAR
0.00015097
Loading maneuver chart data...
Computing Atmospheric mass density...
Loading historical data...
Loading historical data...
Loading historical data...
Loading historical data...
Loading historical data...
Loading historical data...
Loading historical data...
Other satellites on launch #36 in the year 1967 (1967-04-20 UTC)

Documentation

Showing up to 5 results
|